Wind_Speed
10 11 13 14 15 15 16 17 16 14 14 14 13 12 12 11 11 11 12 12 12 13 13 13 14 14 15 16 16 17 17 18 18 19 19 19 19 20 20 21 22 22 22
11 12 14 15 16 17 17 17 17 16 16 15 14 14 13 12 12 13 13 13 13 13 14 14 15 15 16 17 17 18 18 18 19 19 20 20 20 20 21 22 22 22 23
11 12 14 16 17 17 18 18 18 18 17 16 15 14 13 13 13 14 14 14 14 14 14 15 15 16 16 17 17 17 18 19 19 20 20 21 21 22 22 23 23 23 24
12 13 15 17 18 18 19 19 19 19 18 17 15 14 14 14 14 15 15 15 15 15 15 16 16 16 16 17 17 18 19 19 20 20 21 21 22 22 23 24 24 25 26
13 14 16 17 18 19 19 20 19 19 19 17 16 15 15 15 15 15 16 16 16 16 16 16 16 17 17 18 18 19 20 20 21 21 22 23 23 23 24 25 25 26 26
15 16 17 18 19 19 19 20 20 19 19 18 16 16 16 16 16 16 16 16 17 17 17 17 17 18 18 19 19 20 21 22 22 22 24 25 25 25 25 25 26 27 27
16 18 19 19 20 20 20 20 20 20 19 19 18 18 18 18 18 18 18 18 18 18 18 18 18 19 20 20 21 22 23 23 23 24 24 25 26 26 26 27 27 27 28
18 19 20 20 20 21 21 21 21 21 21 20 20 20 20 20 20 20 20 19 19 19 19 19 20 20 21 22 22 23 24 24 25 25 26 26 27 27 27 28 28 29 30
20 20 21 21 21 21 22 22 23 23 23 22 22 22 22 22 22 22 21 21 20 20 20 20 21 21 22 23 23 24 25 25 26 26 27 27 28 28 28 29 29 29 30
21 22 22 22 22 23 23 23 24 24 24 24 24 24 23 23 23 22 22 22 21 21 21 22 22 23 23 24 24 24 25 26 26 27 27 27 28 28 29 29 30 30 30
22 24 23 23 23 24 24 24 25 25 25 25 25 25 25 24 24 24 24 23 23 23 23 23 24 24 25 25 25 26 26 26 27 27 28 28 28 28 29 29 30 30 30
24 25 25 25 25 25 25 25 26 26 27 27 27 26 26 25 24 24 25 24 24 24 24 25 25 26 26 26 27 27 27 27 28 28 28 28 29 29 29 29 30 30 30
26 27 27 27 27 27 27 27 27 28 29 29 29 28 27 27 26 26 26 25 25 25 26 26 26 27 27 27 27 28 28 29 29 28 29 29 29 30 30 30 30 30 30
28 28 28 28 28 29 29 29 30 30 30 30 29 28 28 27 27 27 26 27 27 26 27 27 28 28 28 29 28 28 29 29 29 29 30 30 30 30 30 30 30 30 31
29 29 29 29 29 29 30 31 31 31 31 31 30 30 29 29 29 29 28 28 27 27 28 29 29 29 29 29 29 29 29 30 30 30 30 30 30 30 30 30 30 31 31
31 31 31 31 31 31 31 32 32 32 33 32 32 31 31 31 30 30 30 30 29 29 30 30 30 30 30 30 29 30 29 29 30 30 30 30 30 30 30 30 31 30 30
32 33 33 32 32 33 32 32 32 32 33 33 33 32 32 32 32 31 31 31 30 31 31 31 31 31 31 30 30 30 30 30 30 30 31 31 31 30 30 30 30 30 30
32 33 33 33 33 34 34 34 33 33 33 33 33 33 33 33 33 33 33 32 32 32 32 32 31 31 31 31 30 30 30 30 31 31 31 31 31 30 30 30 30 30 30
33 33 34 34 34 35 35 35 35 34 34 33 33 34 34 34 33 33 33 33 33 32 32 32 32 32 31 31 31 31 31 31 31 31 31 31 30 30 30 30 30 31 31
33 34 34 35 35 36 35 35 35 35 35 35 34 35 35 35 34 34 34 33 34 33 33 33 33 33 32 32 32 32 32 32 31 31 31 31 31 31 31 31 31 32 32
33 34 35 35 35 35 34 34 35 36 36 35 35 35 35 35 35 35 34 34 34 34 34 33 33 32 32 32 32 32 32 32 31 31 32 32 32 32 32 32 32 32 32
34 34 34 34 34 35 35 35 36 36 36 36 36 36 36 36 36 35 35 34 34 34 33 33 32 32 32 32 32 32 32 32 32 32 32 32 32 32 32 32 32 32 32
34 34 34 35 35 35 36 36 36 37 37 37 37 36 36 36 35 35 34 34 34 33 33 32 32 32 32 32 32 32 32 32 32 32 32 32 32 32 32 32 32 32 32
34 35 35 35 35 35 35 36 36 36 37 37 37 36 36 36 35 34 34 33 32 32 31 31 31 32 32 33 33 32 31 31 31 31 31 31 32 32 32 32 32 32 32
34 34 35 35 35 35 35 35 35 35 35 36 35 35 35 35 34 33 33 32 32 32 31 31 32 32 33 33 33 32 31 31 30 31 32 32 33 32 32 32 32 33 32
34 34 34 34 34 34 34 34 34 33 33 33 33 33 32 32 32 33 33 32 31 31 32 32 33 33 33 32 31 30 29 30 31 31 32 33 33 32 32 32 33 33 33
Wind_Direction
360 360 1 1 359 358 356 352 347 343 340 337 331 329 326 319 314 311 311 308 303 298 295 294 295 295 294 293 294 293 294 293 294 296 297 298 296 296 295 295 295 295 296
353 353 353 355 354 354 352 349 345 342 338 334 330 326 324 321 316 313 310 308 306 302 298 295 295 295 295 295 295 294 295 295 295 296 296 296 296 296 295 295 296 295 296
345 347 347 348 349 349 348 347 343 340 336 333 329 326 322 319 316 313 311 309 307 303 301 299 297 296 296 296 296 298 299 299 298 298 298 298 298 297 297 297 296 296 295
337 341 341 341 342 343 342 343 341 340 336 334 330 325 321 317 314 313 311 309 307 303 302 300 299 298 297 298 298 300 300 301 301 300 300 300 300 299 297 297 297 297 296
331 332 334 334 334 336 338 340 338 337 337 334 331 326 323 320 317 314 312 310 307 305 303 301 301 301 299 298 298 299 300 300 300 299 299 299 298 298 297 297 296 296 296
321 322 325 325 326 328 332 334 336 336 335 332 330 329 324 320 317 314 311 308 307 305 303 301 301 301 300 298 297 297 297 299 299 299 299 298 298 297 298 298 298 297 297
314 313 316 318 324 322 324 327 329 331 330 329 326 324 322 318 315 313 311 307 306 306 304 303 303 303 302 299 297 296 297 300 300 301 301 300 299 299 299 299 300 300 299
309 309 313 317 320 322 322 323 326 325 325 325 324 321 318 316 314 312 311 309 306 305 304 304 304 305 305 302 300 300 301 302 302 302 301 301 301 300 301 301 301 301 300
306 307 309 312 314 316 318 319 321 323 322 322 321 320 317 314 311 311 310 308 306 305 305 304 304 305 305 304 303 303 302 302 302 302 302 302 302 301 301 301 301 301 301
304 307 307 310 311 312 313 313 315 317 319 319 319 318 315 313 311 308 308 306 305 304 303 303 303 304 304 304 304 304 303 303 303 303 303 303 303 302 301 301 301 301 301
301 306 306 309 311 312 312 310 311 313 315 316 316 315 314 312 311 310 308 305 303 303 302 302 302 303 304 305 305 304 304 304 305 304 303 302 303 303 303 302 302 303 302
297 300 303 306 308 310 312 311 309 310 311 312 314 313 313 312 310 309 309 306 304 302 302 302 302 303 303 304 304 305 305 305 305 304 303 303 303 303 303 303 303 303 303
295 297 300 302 303 306 308 309 309 308 310 312 311 310 310 309 307 307 308 305 304 301 301 302 304 303 303 303 304 304 304 305 305 305 305 304 303 303 303 303 303 303 303
292 295 296 297 298 301 303 305 306 308 308 308 309 308 308 307 308 307 305 303 303 302 300 302 304 305 304 304 303 303 303 304 304 304 304 305 304 304 304 303 303 304 304
290 292 294 296 298 299 301 302 303 304 304 305 305 305 305 305 305 305 304 303 303 302 301 302 302 303 304 303 302 302 303 304 304 304 304 305 305 305 304 303 304 304 304
288 290 292 293 295 297 299 300 301 301 301 302 302 303 301 301 302 302 302 302 302 302 301 301 301 301 301 301 301 302 303 303 304 305 305 305 305 305 305 305 305 306 306
286 288 289 291 293 294 296 298 299 299 299 298 298 299 300 299 299 299 299 299 300 302 302 301 300 300 300 301 301 301 302 302 303 304 304 304 304 304 304 305 306 306 306
285 286 287 289 290 292 294 296 297 298 297 297 297 297 299 300 300 299 298 298 299 300 300 300 299 298 298 299 299 300 301 301 302 303 303 303 303 302 303 304 304 305 306
284 284 286 288 289 290 293 295 296 296 297 297 297 297 299 300 300 300 299 298 298 299 300 300 299 298 297 298 299 299 300 301 302 302 303 303 303 302 303 303 304 305 306
284 285 285 287 288 288 290 293 294 295 297 298 298 298 299 299 299 299 299 298 298 298 298 299 298 297 297 298 299 299 299 300 300 301 302 303 302 302 302 303 304 304 305
285 285 284 286 287 288 290 291 293 294 295 296 297 298 298 297 297 298 298 297 297 297 297 296 297 297 297 298 298 299 299 299 300 300 301 301 301 301 301 301 302 303 303
284 286 286 285 286 288 290 291 292 293 294 295 296 297 298 297 296 296 297 297 297 297 296 296 296 296 297 297 297 298 298 299 299 300 300 301 301 301 301 301 301 301 302
284 285 285 285 287 288 289 290 291 292 293 294 295 296 297 296 296 295 295 296 297 296 296 297 297 297 297 297 297 298 298 298 299 300 300 301 301 301 301 301 301 301 301
285 285 285 286 287 289 290 291 291 292 292 292 293 294 295 294 294 293 293 294 295 295 295 296 297 298 298 298 298 297 297 298 300 301 301 301 302 302 302 301 301 301 301
285 284 285 286 287 288 290 291 292 292 292 293 293 293 293 293 293 292 291 293 294 295 295 295 297 297 297 297 297 297 297 299 300 300 300 300 300 300 301 301 301 301 301
284 284 285 286 287 288 290 291 292 293 294 294 294 294 294 294 294 293 293 294 295 295 296 296 297 298 298 298 298 298 299 301 301 301 301 301 301 301 301 301 301 301 301
Height
5908 5906 5904 5902 5899 5897 5894 5891 5889 5886 5884 5882 5879 5878 5876 5874 5873 5872 5871 5870 5869 5867 5866 5865 5864 5863 5862 5861 5859 5858 5857 5855 5854 5852 5850 5849 5847 5845 5843 5841 5839 5837 5835
5907 5905 5904 5901 5899 5896 5894 5891 5888 5885 5882 5880 5878 5876 5874 5872 5871 5870 5869 5867 5866 5865 5863 5862 5861 5859 5858 5857 5856 5854 5852 5851 5849 5847 5846 5844 5842 5840 5838 5836 5834 5832 5829
5906 5905 5903 5901 5898 5896 5893 5890 5887 5884 5881 5878 5876 5874 5872 5870 5869 5867 5866 5864 5863 5861 5860 5859 5857 5856 5854 5853 5851 5850 5848 5846 5844 5843 5841 5839 5836 5834 5832 5830 5828 5826 5823
5905 5904 5902 5900 5897 5895 5892 5889 5885 5882 5879 5876 5874 5871 5870 5868 5866 5865 5863 5861 5859 5858 5856 5855 5853 5852 5850 5849 5847 5845 5844 5842 5840 5838 5835 5833 5831 5829 5827 5824 5822 5819 5817
5904 5902 5900 5898 5896 5893 5890 5887 5883 5880 5876 5874 5872 5869 5867 5865 5863 5861 5860 5858 5856 5854 5853 5851 5849 5848 5846 5844 5842 5841 5839 5837 5835 5832 5830 5828 5825 5823 5820 5818 5815 5813 5810
5902 5900 5898 5896 5893 5890 5887 5884 5881 5878 5875 5872 5869 5867 5865 5863 5860 5858 5856 5854 5852 5850 5848 5847 5845 5843 5841 5839 5838 5836 5834 5832 5829 5827 5824 5822 5819 5817 5814 5811 5808 5806 5803
5899 5897 5895 5892 5889 5886 5884 5881 5878 5875 5872 5870 5867 5864 5862 5859 5857 5855 5853 5850 5848 5846 5844 5842 5840 5838 5836 5834 5832 5830 5828 5826 5823 5821 5818 5815 5812 5810 5807 5804 5801 5798 5795
5895 5893 5891 5888 5886 5883 5881 5878 5875 5872 5869 5866 5863 5861 5858 5856 5853 5851 5849 5846 5844 5842 5840 5838 5836 5833 5831 5829 5826 5824 5822 5819 5817 5814 5811 5808 5805 5803 5800 5797 5794 5791 5788
5891 5889 5887 5885 5882 5880 5877 5875 5872 5869 5866 5863 5860 5857 5854 5851 5849 5846 5844 5841 5839 5837 5835 5833 5830 5828 5826 5823 5821 5818 5815 5813 5810 5807 5804 5801 5798 5795 5792 5789 5786 5783 5780
5887 5884 5882 5880 5878 5875 5873 5870 5867 5865 5862 5859 5855 5852 5849 5846 5844 5841 5838 5836 5834 5832 5830 5827 5825 5822 5820 5817 5815 5812 5809 5806 5803 5800 5797 5794 5791 5788 5785 5782 5779 5776 5772
5881 5879 5877 5875 5873 5870 5867 5864 5862 5860 5857 5853 5850 5847 5844 5841 5838 5836 5833 5831 5828 5826 5824 5821 5819 5816 5814 5811 5808 5805 5802 5799 5796 5793 5790 5787 5784 5780 5777 5774 5771 5768 5764
5876 5874 5871 5869 5867 5865 5862 5859 5857 5854 5851 5848 5844 5841 5839 5835 5833 5830 5827 5825 5822 5820 5817 5815 5812 5810 5807 5804 5801 5798 5795 5792 5789 5786 5783 5779 5776 5773 5769 5766 5763 5760 5756
5869 5867 5865 5863 5861 5859 5856 5854 5851 5848 5845 5842 5839 5836 5833 5830 5827 5824 5821 5818 5815 5813 5811 5808 5805 5802 5800 5797 5794 5791 5788 5785 5781 5778 5775 5772 5769 5765 5762 5758 5755 5751 5748
5862 5860 5858 5856 5854 5852 5850 5847 5844 5842 5839 5836 5833 5830 5827 5824 5821 5817 5814 5811 5809 5806 5804 5801 5799 5796 5793 5790 5787 5784 5781 5777 5774 5771 5767 5764 5761 5757 5754 5750 5747 5743 5740
5854 5853 5852 5850 5847 5845 5842 5840 5837 5834 5831 5828 5825 5823 5820 5817 5814 5810 5807 5805 5802 5799 5797 5794 5791 5788 5785 5782 5779 5776 5773 5770 5766 5763 5760 5756 5753 5749 5746 5742 5739 5735 5732
5846 5845 5843 5842 5840 5837 5835 5832 5829 5827 5823 5820 5817 5815 5812 5809 5806 5803 5800 5798 5795 5792 5789 5786 5783 5780 5777 5774 5771 5768 5765 5762 5758 5755 5752 5748 5745 5741 5738 5734 5731 5727 5724
5837 5836 5835 5833 5831 5829 5826 5824 5821 5818 5815 5812 5809 5806 5804 5801 5798 5795 5792 5790 5787 5784 5781 5778 5775 5772 5769 5766 5763 5760 5757 5754 5750 5747 5744 5740 5737 5733 5730 5726 5723 5719 5716
5828 5827 5825 5824 5822 5819 5817 5814 5812 5809 5806 5803 5800 5798 5795 5793 5790 5787 5784 5781 5778 5776 5773 5770 5767 5764 5761 5758 5754 5751 5748 5745 5742 5738 5735 5732 5728 5725 5722 5718 5715 5712 5708
5818 5817 5816 5814 5812 5810 5808 5805 5803 5800 5797 5794 5792 5789 5786 5783 5781 5778 5775 5773 5770 5767 5764 5761 5758 5755 5752 5749 5746 5743 5740 5737 5733 5730 5727 5723 5720 5717 5713 5710 5707 5703 5700
5809 5808 5806 5804 5802 5800 5798 5796 5793 5791 5788 5785 5783 5780 5777 5774 5772 5769 5766 5763 5760 5758 5755 5752 5749 5746 5743 5740 5737 5734 5731 5728 5725 5721 5718 5715 5712 5708 5705 5702 5698 5695 5692
5798 5797 5796 5794 5792 5790 5788 5786 5784 5781 5778 5776 5773 5771 5768 5765 5762 5760 5757 5754 5751 5748 5745 5742 5739 5736 5734 5731 5728 5725 5722 5719 5716 5712 5709 5706 5703 5699 5696 5693 5690 5686 5683
5788 5787 5785 5784 5782 5780 5778 5776 5773 5771 5768 5766 5763 5761 5758 5755 5752 5750 5747 5744 5741 5738 5735 5733 5730 5727 5724 5722 5719 5716 5713 5710 5707 5703 5700 5696 5693 5690 5687 5684 5680 5677 5674
5778 5777 5775 5774 5772 5770 5768 5766 5763 5761 5758 5755 5753 5750 5747 5745 5742 5740 5737 5734 5732 5729 5726 5723 5721 5718 5715 5712 5709 5706 5703 5700 5697 5694 5690 5687 5684 5681 5678 5674 5671 5668 5665
5768 5767 5765 5764 5762 5760 5758 5755 5753 5750 5748 5745 5743 5740 5738 5735 5732 5730 5727 5725 5722 5719 5717 5714 5711 5709 5705 5702 5699 5696 5693 5690 5687 5684 5681 5678 5675 5671 5668 5665 5662 5659 5655
5758 5756 5755 5753 5752 5750 5747 5745 5742 5740 5738 5735 5733 5730 5728 5725 5722 5720 5717 5715 5713 5710 5708 5705 5702 5699 5696 5693 5690 5687 5684 5681 5678 5675 5672 5669 5666 5662 5659 5656 5653 5649 5646
5748 5746 5745 5743 5741 5739 5737 5735 5732 5730 5728 5725 5722 5720 5718 5715 5713 5710 5708 5706 5703 5701 5698 5696 5693 5690 5687 5684 5680 5677 5674 5671 5668 5665 5662 5659 5656 5653 5649 5646 5643 5640 5636